Lexington Weather

Lexington, Massachusetts, USA

46°F
9/19/2020 8:40am 
  • Lexington Conditions: Clear
  • Temperature: 45.5°F / 7.5°CWarmer 2.3°F than last hour.
  • Dew Point: 36.0°FIncreased 0.6°Fsince last hour.
  • Relative Humidity: 69%Decreased 5.0% since last hour.
  • Wind: Wind from ENE ENE 1 mph, 10-min avg: 1 mph, gust: 3 mph
  • Barometer: 30.26 inRising 0.03  inHg/hr Rising Slowly
  • Visibility: 10 miles
  • Rain Today: 0.00 in
  •   
Southeast Middlesex County - Special Weather Statement
 - SEE ALL NEARBY ALERTS -

Regional Weather Roundup
for Boston / Norton, MA

        
000
ASUS41 KBOX 182304
RWRBOX

REGIONAL WEATHER ROUNDUP
NATIONAL WEATHER SERVICE BOSTON/NORTON MA
700 PM EDT FRI SEP 18 2020

NOTE:  "FAIR" INDICATES FEW OR NO CLOUDS BELOW 12,000 FEET WITH NO 
SIGNIFICANT WEATHER AND/OR OBSTRUCTIONS TO VISIBILITY.

MAZALL-190000-
EASTERN MASSACHUSETTS
  
CITY           SKY/WX    TMP DP  RH WIND       PRES   REMARKS
BOSTON         PTCLDY    58  46  64 NE10      30.00R                  
BEVERLY        PTCLDY    59  46  62 NE3       29.99R                  
LAWRENCE       PTCLDY    59  48  67 E3        30.02R                  
BEDFORD        PTCLDY    57  49  74 CALM      29.99R                  
BLUE HILL        N/A     56  46  69 NE8       29.98S                  
NORWOOD        PTCLDY    60  47  61 NE3       29.99R                  
MARSHFIELD     MOCLDY    63  43  48 VRB7G18   29.99R                  
PLYMOUTH       CLEAR     58  46  64 N9        29.99R                  
TAUNTON        CLOUDY    61  46  57 VRB3      29.98R                  
NEW BEDFORD    PTCLDY    59  46  62 VRB3      29.97R                  
$$

MAZALL-190000-
CAPE COD AND THE ISLANDS
  
CITY           SKY/WX    TMP DP  RH WIND       PRES   REMARKS
FALMOUTH       NOT AVBL                                               
HYANNIS        CLOUDY    59  48  67 N14G22    29.94R                  
CHATHAM        PTCLDY    58  50  75 VRB6      29.96R                  
PROVINCETOWN   PTCLDY    58  49  72 N15G21    29.99R                  
NANTUCKET      MOCLDY    60  52  74 N20G31    29.94R                  
MARTHAS VNYRD  CLEAR     58  47  66 N15       29.96R                  
$$
 
MAZALL-190000-
CENTRAL AND WESTERN MASSACHUSETTS
  
CITY           SKY/WX    TMP DP  RH WIND       PRES   REMARKS
WORCESTER      CLEAR     58  35  42 N10       30.02R                  
FITCHBURG      CLEAR     59  35  40 NW8       30.03R                  
ORANGE         CLEAR     59  37  44 N10       30.05R                  
SPRINGFIELD    PTCLDY    61  37  42 N13G18    30.02R                  
WESTFIELD      CLEAR     60  34  37 N13       30.03R                  
NORTH ADAMS    CLEAR     55  32  41 VRB3      30.08R                  
PITTSFIELD     CLEAR     54  32  43 N6        30.06R                  
$$
 
RIZALL-190000-
RHODE ISLAND
  
CITY           SKY/WX    TMP DP  RH WIND       PRES   REMARKS
PROVIDENCE     MOCLDY    64  47  53 N17       29.99R                  
NEWPORT        CLOUDY    61  45  55 NE8       29.98R                  
BLOCK ISLAND   CLOUDY    62  48  60 NE12      29.98R                  
SMITHFIELD     PTCLDY    58  49  72 N7        30.00R                  
WESTERLY       MOCLDY    63  47  55 N9        29.99R                  
$$
 
CTZALL-190000-
CONNECTICUT
  
CITY           SKY/WX    TMP DP  RH WIND       PRES   REMARKS
BRADLEY INTL   MOCLDY    61  32  33 N16G24    30.02R                  
HARTFORD       PTCLDY    65  42  43 N14       30.01R                  
BRIDGEPORT     CLEAR     64  37  36 N15       30.01R                  
DANBURY        CLEAR     60  39  45 N9        30.04R                  
GROTON         CLEAR     62  49  62 N8        29.98R                  
NEW HAVEN      CLOUDY    66  51  58 N8        30.00R                  
CHESTER        NOT AVBL                                               
MERIDEN        MOCLDY    64  43  46 N12       30.01R                  
WILLIMANTIC    CLEAR     61  48  62 N6        30.00R                  
OXFORD         CLEAR     58  34  40 N14       30.03R                  
$$

MEZ002-015-021-024-NHZ003-005-008-011-012-014-VTZ005-008-190000-
NORTHERN NEW ENGLAND
  
CITY           SKY/WX    TMP DP  RH WIND       PRES   REMARKS
PORTLAND ME    PTCLDY    61  35  37 N7        30.01R                  
BANGOR ME      PTCLDY    56  32  40 N7        30.02R                  
CONCORD NH     CLEAR     58  30  34 NW15      30.04R                  
MANCHESTER NH  PTCLDY    62  28  27 N16G23    30.01R                  
NASHUA NH      PTCLDY    61  31  32 NW14G22   30.03R                  
PORTSMOUTH NH  PTCLDY    57  42  56 E5        29.99R                  
JAFFREY NH     CLEAR     56  32  40 VRB6      30.05R                  
KEENE NH       CLEAR     57  34  41 N16       30.06R                  
BURLINGTON VT  MOCLDY    53  31  42 N6        30.17R                  
MT. WASHINGTON PTCLDY    27  21  80 N21G36      N/A  WCI  13          
$$

NYZ052-076-190000-
EASTERN NEW YORK
  
CITY           SKY/WX    TMP DP  RH WIND       PRES   REMARKS
ALBANY         PTCLDY    53  33  46 N15G24    30.11R                  
NEW YORK CITY  PTCLDY    68  43  40 N16       30.00R                  
$$
 
ANZALL-190000-
MARINE OBSERVATIONS
  
STATION/POSITION TIME  TEMP    WIND        PRES    VSBY  WAVE
                       AIR SEA DIR/SP/G                  HT/PER
                 (UTC) (F)     (DEG/KT/KT) (MB)    (MI)  (FT/S)
BOSTON BUOY      2250   61 62   30/ 14/ 16 1014.6R         6/ 7
BUZZARDS BAY     2200           20/ 21/ 23 1015.1R
NANTUCKET SOUND  2250      69   10/ 21/ 25   N/A           3/ 4
MASS BAY-STELLWA 2204   60      60/ 16/ 17 1013.4R  1 7/8  7/11
ISLE OF SHOALS   2200   60      70/ 13/ 14 1014.7R
S OF BLOCK IS    2226      68                N/A           5/ 5
$$

......................KEY.........................
  SKY/WX - SKY CONDITION/PRESENT WEATHER
  TMP    - TEMPERATURE IN FAHRENHEIT
  DWPT   - DEWPOINT IN FAHRENHEIT
  RH     - RELATIVE HUMIDITY IN PERCENT
  WIND   - DIRECTION AND SPEED IN MPH
  PRES   - MEAN SEA LEVEL PRESSURE IN INCHES OF HG
  WCI    - WIND CHILL INDEX
  VSB    - VISIBILITY IN MILES
  HX     - HEAT INDEX
  TC     - TEMPERATURE IN CELSIUS
  VRB    - VARIABLE WIND DIRECTION
  N/A    - NOT AVAILABLE
  
      

Other recent Regional Weather Roundups

Sat Sep 19, 8:04am

Sat Sep 19, 7:04am

Sat Sep 19, 6:04am

Sat Sep 19, 5:04am

Sat Sep 19, 4:04am

Sat Sep 19, 3:04am

Sat Sep 19, 2:04am

Sat Sep 19, 1:04am

Sat Sep 19, 12:04am

Fri Sep 18, 11:05pm

Fri Sep 18, 10:04pm

Fri Sep 18, 9:04pm

Fri Sep 18, 8:04pm

Fri Sep 18, 6:04pm

Fri Sep 18, 5:05pm

Fri Sep 18, 4:04pm

Fri Sep 18, 3:05pm

Fri Sep 18, 2:04pm

Fri Sep 18, 1:04pm

Fri Sep 18, 12:04pm

Fri Sep 18, 11:05am

Fri Sep 18, 10:05am

Fri Sep 18, 9:04am

Fri Sep 18, 8:04am

Fri Sep 18, 7:04am

Fri Sep 18, 6:04am

Fri Sep 18, 5:04am

Fri Sep 18, 4:04am

Fri Sep 18, 3:04am

Fri Sep 18, 2:04am

Fri Sep 18, 1:04am

Fri Sep 18, 12:04am

Thu Sep 17, 11:05pm

Thu Sep 17, 10:04pm

Thu Sep 17, 9:04pm

Thu Sep 17, 8:05pm

Thu Sep 17, 7:04pm

Thu Sep 17, 6:04pm

Thu Sep 17, 5:04pm

Thu Sep 17, 4:04pm

Thu Sep 17, 3:05pm

Thu Sep 17, 2:04pm

Thu Sep 17, 1:04pm

Thu Sep 17, 12:04pm

Thu Sep 17, 11:04am

Thu Sep 17, 10:04am

Thu Sep 17, 9:04am

Thu Sep 17, 8:04am

Thu Sep 17, 7:04am

Thu Sep 17, 6:04am

Thu Sep 17, 5:04am

Thu Sep 17, 4:04am

Thu Sep 17, 3:04am

Thu Sep 17, 2:05am

Thu Sep 17, 1:05am

Thu Sep 17, 12:04am

Wed Sep 16, 11:04pm

Wed Sep 16, 10:04pm

Wed Sep 16, 9:04pm

Wed Sep 16, 8:05pm

Wed Sep 16, 7:04pm

Wed Sep 16, 6:04pm

Wed Sep 16, 5:04pm

Wed Sep 16, 4:04pm

Wed Sep 16, 3:04pm

Wed Sep 16, 2:04pm

Wed Sep 16, 1:04pm

Wed Sep 16, 12:04pm

Wed Sep 16, 11:04am

Wed Sep 16, 10:04am

Wed Sep 16, 9:04am

Wed Sep 16, 8:04am

Wed Sep 16, 7:04am

Wed Sep 16, 6:04am

Wed Sep 16, 5:04am

Wed Sep 16, 4:04am

Wed Sep 16, 3:04am

Wed Sep 16, 2:04am

Wed Sep 16, 1:04am

Wed Sep 16, 12:05am

Tue Sep 15, 11:04pm

Tue Sep 15, 10:04pm

Tue Sep 15, 9:04pm

Tue Sep 15, 8:04pm

Tue Sep 15, 7:04pm

Tue Sep 15, 6:04pm

Tue Sep 15, 5:04pm

Tue Sep 15, 4:05pm

Tue Sep 15, 3:04pm

Tue Sep 15, 2:04pm

Tue Sep 15, 1:04pm

Tue Sep 15, 12:04pm

Tue Sep 15, 11:04am

Tue Sep 15, 10:04am

Tue Sep 15, 9:04am

Tue Sep 15, 8:04am

Tue Sep 15, 7:04am

Tue Sep 15, 6:04am

Tue Sep 15, 5:04am

Tue Sep 15, 4:04am

Tue Sep 15, 3:04am

Tue Sep 15, 2:04am

Tue Sep 15, 1:04am

Tue Sep 15, 12:05am

Mon Sep 14, 11:04pm

Mon Sep 14, 10:04pm

Mon Sep 14, 9:04pm

Mon Sep 14, 8:04pm

Mon Sep 14, 7:04pm

Mon Sep 14, 6:04pm

Mon Sep 14, 5:04pm

Mon Sep 14, 4:05pm

Mon Sep 14, 3:04pm

Mon Sep 14, 2:05pm

Mon Sep 14, 1:04pm

Mon Sep 14, 12:04pm

Mon Sep 14, 11:04am

Mon Sep 14, 10:05am

Mon Sep 14, 9:04am

Mon Sep 14, 8:04am

Mon Sep 14, 7:04am

Mon Sep 14, 6:04am

Mon Sep 14, 5:04am

Mon Sep 14, 4:04am

Mon Sep 14, 3:04am

Mon Sep 14, 2:04am

Mon Sep 14, 1:04am

Mon Sep 14, 12:04am

Sun Sep 13, 11:05pm

Sun Sep 13, 10:04pm

Sun Sep 13, 9:04pm

Sun Sep 13, 8:04pm

Sun Sep 13, 7:05pm

Sun Sep 13, 6:05pm

Sun Sep 13, 5:05pm

Sun Sep 13, 4:04pm

Sun Sep 13, 3:04pm

Sun Sep 13, 2:04pm

Sun Sep 13, 1:04pm

Sun Sep 13, 12:04pm

Sun Sep 13, 11:05am

Sun Sep 13, 10:04am

Sun Sep 13, 9:04am

Sun Sep 13, 8:04am

Sun Sep 13, 7:04am

Sun Sep 13, 6:04am

Sun Sep 13, 5:04am

Sun Sep 13, 4:04am

Sun Sep 13, 3:04am

Sun Sep 13, 2:04am

Sun Sep 13, 1:04am

Sun Sep 13, 12:04am

Sat Sep 12, 11:04pm

Sat Sep 12, 10:04pm

Sat Sep 12, 9:04pm

Sat Sep 12, 8:04pm

Sat Sep 12, 7:05pm

Sat Sep 12, 6:04pm

Sat Sep 12, 5:04pm

Sat Sep 12, 4:05pm

Sat Sep 12, 3:04pm

Sat Sep 12, 2:04pm

Sat Sep 12, 1:05pm

Sat Sep 12, 12:04pm

Sat Sep 12, 11:04am

Sat Sep 12, 10:04am

Sat Sep 12, 9:04am

Meta data:

ID: 55a97eaf-7224-4736-a151-80e7eaa11ed7
Link: https://api.weather.gov/products/55a97eaf-7224-4736-a151-80e7eaa11ed7